Time[GMT],gps_lat[degrees_north](-3m),gps_lon[degrees_west](-3m),gps_2_lat[degrees_north](-3m),gps_2_lon[degrees_west](-3m)
2008-10-02 15:00,43.180732727,-70.427963257,43.18,-70.42
2008-10-02 16:00,43.180583954,-70.427680969,43.18,-70.43
2008-10-02 17:00,43.180450439,-70.427413940,43.18,-70.43
2008-10-02 18:00,43.180267334,-70.427314758,43.18,-70.43
2008-10-02 19:00,43.180282593,-70.427314758,43.18,-70.43
2008-10-02 20:00,43.180217743,-70.427284241,43.18,-70.43
2008-10-02 21:00,43.180248260,-70.427284241,43.18,-70.43
2008-10-02 22:00,43.180233002,-70.427284241,43.18,-70.43
2008-10-02 23:00,43.180233002,-70.427314758,43.18,-70.43
2008-10-03 00:00,43.180301666,-70.427299500,43.18,-70.43
2008-10-03 01:00,43.180301666,-70.427352905,43.18,-70.43
2008-10-03 02:00,43.180366516,-70.427314758,43.18,-70.43
2008-10-03 03:00,43.180400848,-70.427268982,43.18,-70.43
2008-10-03 04:00,43.180416107,-70.427268982,43.18,-70.43
2008-10-03 05:00,43.180416107,-70.427268982,43.18,-70.43
2008-10-03 06:00,43.180381775,-70.427284241,43.18,-70.43
2008-10-03 08:00,,,,
2008-10-03 09:00,43.180416107,-70.427230835,43.18,-70.43
2008-10-03 10:00,43.180465698,-70.427268982,43.18,-70.43
2008-10-03 11:00,43.180465698,-70.427284241,43.18,-70.43
2008-10-03 12:00,43.180583954,-70.427566528,43.18,-70.43
2008-10-03 13:00,43.180599213,-70.427253723,43.18,-70.43
2008-10-03 14:00,43.180648804,-70.427314758,43.18,-70.43
2008-10-03 15:00,43.180618286,-70.427352905,43.18,-70.43
2008-10-03 16:00,43.180618286,-70.427352905,43.18,-70.43
2008-10-03 17:00,43.180618286,-70.427299500,43.18,-70.43
2008-10-03 18:00,43.180564880,-70.427253723,43.18,-70.43
2008-10-03 19:00,43.180465698,-70.427200317,43.18,-70.43
2008-10-03 20:00,43.180366516,-70.427146912,43.18,-70.43
2008-10-03 21:00,43.180416107,-70.427200317,43.18,-70.43
2008-10-03 22:00,43.180400848,-70.427185059,43.18,-70.43
2008-10-03 23:00,43.180416107,-70.427169800,43.18,-70.43
2008-10-04 00:00,43.180549622,-70.427185059,43.18,-70.43
2008-10-04 01:00,43.180564880,-70.427146912,43.18,-70.43
2008-10-04 02:00,43.180549622,-70.427200317,43.18,-70.43
2008-10-04 03:00,43.180583954,-70.427230835,43.18,-70.43
2008-10-04 04:00,43.180583954,-70.427268982,43.18,-70.43
2008-10-04 05:00,43.180599213,-70.427253723,43.18,-70.43
2008-10-04 06:00,43.180648804,-70.427230835,43.18,-70.43
2008-10-04 07:00,43.180599213,-70.427200317,43.18,-70.43
2008-10-04 08:00,43.180583954,-70.427146912,43.18,-70.43
2008-10-04 09:00,43.180515289,-70.427131653,43.18,-70.43
2008-10-04 10:00,43.180484772,-70.427146912,43.18,-70.43
2008-10-04 11:00,43.180450439,-70.427169800,43.18,-70.43
2008-10-04 12:00,43.180534363,-70.427146912,43.18,-70.43
2008-10-04 13:00,43.180500031,-70.427185059,43.18,-70.43
2008-10-04 14:00,43.180549622,-70.427268982,43.18,-70.43
2008-10-04 15:00,43.180534363,-70.427299500,43.18,-70.43
2008-10-04 16:00,43.180484772,-70.427268982,43.18,-70.43
2008-10-04 17:00,43.180450439,-70.427230835,43.18,-70.43
2008-10-04 18:00,43.180450439,-70.427215576,43.18,-70.43
2008-10-04 19:00,43.180400848,-70.427253723,43.18,-70.43
2008-10-04 20:00,43.180381775,-70.427284241,43.18,-70.43
2008-10-04 21:00,43.180400848,-70.427268982,43.18,-70.43
2008-10-04 22:00,43.180416107,-70.427284241,43.18,-70.43
2008-10-04 23:00,43.180450439,-70.427268982,43.18,-70.43
2008-10-05 00:00,43.180450439,-70.427284241,43.18,-70.43
2008-10-05 01:00,43.180465698,-70.427299500,43.18,-70.43
2008-10-05 02:00,43.180515289,-70.427368164,43.18,-70.43
2008-10-05 03:00,43.180564880,-70.427330017,43.18,-70.43
2008-10-05 04:00,43.180618286,-70.427314758,43.18,-70.43
2008-10-05 05:00,43.180583954,-70.427284241,43.18,-70.43
2008-10-05 06:00,43.180564880,-70.427268982,43.18,-70.43
2008-10-05 07:00,43.180484772,-70.427230835,43.18,-70.43
2008-10-05 08:00,43.180435181,-70.427268982,43.18,-70.43
2008-10-05 09:00,43.180416107,-70.427314758,43.18,-70.43
2008-10-05 10:00,43.180400848,-70.427330017,43.18,-70.43
2008-10-05 11:00,43.180381775,-70.427352905,43.18,-70.43
2008-10-05 12:00,43.180366516,-70.427352905,43.18,-70.43
2008-10-05 13:00,43.180416107,-70.427383423,43.18,-70.43
2008-10-05 14:00,43.180416107,-70.427413940,43.18,-70.43
2008-10-05 15:00,43.180500031,-70.427482605,43.18,-70.43
2008-10-05 16:00,43.180583954,-70.427566528,43.18,-70.43
2008-10-05 17:00,43.180633545,-70.427551270,43.18,-70.43
2008-10-05 18:00,43.180667877,-70.427551270,43.18,-70.43
2008-10-05 19:00,43.180717468,-70.427482605,43.18,-70.43
2008-10-05 20:00,43.180683136,-70.427398682,43.18,-70.43
2008-10-05 21:00,,,,
2008-10-05 22:00,43.180648804,-70.427352905,43.18,-70.43
2008-10-05 23:00,43.180667877,-70.427352905,43.18,-70.43
2008-10-06 00:00,43.180667877,-70.427268982,43.18,-70.43
2008-10-06 02:00,43.180633545,-70.427284241,43.18,-70.43
2008-10-06 03:00,43.180564880,-70.427368164,43.18,-70.43
2008-10-06 04:00,43.180465698,-70.427436829,43.18,-70.43
2008-10-06 05:00,43.180416107,-70.427551270,43.18,-70.43
2008-10-06 06:00,43.180450439,-70.427597046,43.18,-70.43
2008-10-06 07:00,43.180465698,-70.427696228,43.18,-70.43
2008-10-06 08:00,43.180435181,-70.427665710,43.18,-70.43
2008-10-06 09:00,43.180435181,-70.427619934,43.18,-70.43
2008-10-06 10:00,43.180435181,-70.427581787,43.18,-70.43
2008-10-06 11:00,43.180400848,-70.427551270,43.18,-70.43
2008-10-06 12:00,43.180416107,-70.427566528,43.18,-70.43
2008-10-06 13:00,43.180435181,-70.427551270,43.17,-70.42
2008-10-06 14:00,43.180465698,-70.427650452,43.18,-70.43
2008-10-06 15:00,43.180534363,-70.427650452,43.18,-70.43
2008-10-06 16:00,43.180599213,-70.427581787,43.18,-70.43
2008-10-06 17:00,43.180583954,-70.427597046,43.18,-70.43
2008-10-06 18:00,43.180599213,-70.427619934,43.18,-70.43
2008-10-06 19:00,43.180500031,-70.427467346,43.18,-70.43
2008-10-06 20:00,43.180381775,-70.427436829,43.18,-70.43
2008-10-06 21:00,43.180351257,-70.427398682,43.18,-70.43
2008-10-06 22:00,43.180366516,-70.427383423,43.18,-70.43
2008-10-06 23:00,43.180267334,-70.427299500,43.18,-70.43
2008-10-07 00:00,43.180217743,-70.427383423,43.18,-70.43
2008-10-07 01:00,43.180183411,-70.427513123,43.18,-70.43
2008-10-07 02:00,43.180217743,-70.427635193,43.18,-70.43
2008-10-07 03:00,43.180267334,-70.427650452,43.18,-70.43
2008-10-07 04:00,43.180282593,-70.427665710,43.18,-70.43
2008-10-07 05:00,43.180400848,-70.427680969,43.18,-70.43
2008-10-07 06:00,43.180465698,-70.427581787,43.18,-70.43
2008-10-07 07:00,43.180534363,-70.427513123,43.18,-70.43
2008-10-07 08:00,43.180500031,-70.427352905,43.18,-70.43
2008-10-07 09:00,43.180435181,-70.427368164,43.18,-70.43
2008-10-07 10:00,43.180400848,-70.427268982,43.18,-70.43
2008-10-07 11:00,43.181415558,-70.429679871,43.18,-70.43
2008-10-07 12:00,43.180366516,-70.427268982,43.18,-70.43
2008-10-07 13:00,43.180316925,-70.427284241,43.18,-70.43
2008-10-07 14:00,43.180316925,-70.427330017,43.18,-70.43
2008-10-07 15:00,43.180301666,-70.427398682,43.18,-70.43
2008-10-07 16:00,43.180351257,-70.427482605,43.18,-70.43
2008-10-07 17:00,43.180400848,-70.427551270,43.18,-70.43
2008-10-07 18:00,43.180400848,-70.427536011,43.18,-70.43
2008-10-07 19:00,43.180416107,-70.427497864,43.18,-70.43
2008-10-07 20:00,43.180416107,-70.427467346,43.18,-70.43
2008-10-07 21:00,43.180400848,-70.427352905,43.18,-70.43
2008-10-07 22:00,43.180381775,-70.427330017,43.18,-70.43
2008-10-07 23:00,43.180416107,-70.427299500,43.18,-70.43
2008-10-08 00:00,43.180435181,-70.427314758,43.18,-70.43
2008-10-08 01:00,43.180400848,-70.427314758,43.18,-70.43
2008-10-08 02:00,43.180366516,-70.427284241,43.18,-70.43
2008-10-08 03:00,43.180316925,-70.427330017,43.18,-70.43
2008-10-08 04:00,43.180316925,-70.427398682,43.18,-70.43
2008-10-08 05:00,43.180332184,-70.427398682,43.18,-70.43
2008-10-08 06:00,43.180366516,-70.427436829,43.18,-70.43
2008-10-08 07:00,43.180450439,-70.427436829,43.18,-70.43
2008-10-08 08:00,43.180435181,-70.427352905,43.18,-70.43
2008-10-08 09:00,43.180450439,-70.427398682,43.18,-70.43
2008-10-08 10:00,43.180416107,-70.427368164,43.18,-70.43
2008-10-08 11:00,43.180282593,-70.427368164,43.18,-70.43
2008-10-08 12:00,43.180400848,-70.427368164,43.18,-70.43
2008-10-08 13:00,43.180366516,-70.427352905,43.18,-70.43
2008-10-08 14:00,43.180366516,-70.427383423,43.18,-70.43
2008-10-08 15:00,43.180400848,-70.427398682,43.18,-70.43
2008-10-08 16:00,43.180400848,-70.427413940,43.18,-70.43
2008-10-08 17:00,43.180400848,-70.427413940,43.18,-70.43
2008-10-08 18:00,43.180465698,-70.427452087,43.18,-70.43
2008-10-08 20:00,43.180500031,-70.427482605,43.18,-70.43
2008-10-08 21:00,43.180564880,-70.427452087,43.18,-70.43
2008-10-08 22:00,43.180618286,-70.427436829,43.18,-70.43
2008-10-08 23:00,43.180633545,-70.427368164,43.18,-70.43
2008-10-09 00:00,43.180618286,-70.427314758,43.18,-70.43
2008-10-09 01:00,43.180549622,-70.427284241,43.18,-70.43
2008-10-09 02:00,43.180549622,-70.427230835,43.18,-70.43
2008-10-09 03:00,43.180583954,-70.427230835,43.18,-70.43
2008-10-09 04:00,43.180583954,-70.427284241,43.18,-70.43
2008-10-09 05:00,43.180633545,-70.427253723,43.18,-70.43
2008-10-09 06:00,43.180667877,-70.427314758,43.18,-70.43
2008-10-09 07:00,43.180667877,-70.427330017,43.18,-70.43
2008-10-09 08:00,43.180683136,-70.427314758,43.18,-70.43
2008-10-09 09:00,43.180667877,-70.427330017,43.18,-70.43
2008-10-09 10:00,43.180667877,-70.427383423,43.18,-70.43
2008-10-09 11:00,43.180633545,-70.427368164,43.18,-70.43
2008-10-09 12:00,43.180648804,-70.427352905,43.18,-70.43
2008-10-09 13:00,43.180667877,-70.427330017,43.18,-70.43
2008-10-09 14:00,43.180633545,-70.427284241,43.18,-70.43
2008-10-09 15:00,43.180633545,-70.427314758,43.18,-70.43
2008-10-09 16:00,43.180648804,-70.427330017,43.18,-70.43
2008-10-09 17:00,43.180648804,-70.427383423,43.18,-70.43
2008-10-09 18:00,43.180633545,-70.427398682,43.18,-70.43
2008-10-09 19:00,43.180618286,-70.427330017,43.18,-70.43
2008-10-09 20:00,43.180583954,-70.427284241,43.18,-70.43
2008-10-09 21:00,43.180599213,-70.427299500,43.18,-70.43
2008-10-09 22:00,43.180618286,-70.427299500,43.18,-70.43
2008-10-09 23:00,43.180633545,-70.427330017,43.18,-70.43
2008-10-10 00:00,43.180667877,-70.427268982,43.18,-70.43
2008-10-10 01:00,43.180564880,-70.427299500,43.18,-70.43
2008-10-10 02:00,43.180564880,-70.427268982,43.17,-70.42
2008-10-10 03:00,43.180515289,-70.427299500,43.18,-70.43
2008-10-10 04:00,43.180534363,-70.427284241,43.18,-70.43
2008-10-10 05:00,43.180534363,-70.427314758,43.18,-70.43
2008-10-10 06:00,43.180564880,-70.427284241,43.18,-70.43
2008-10-10 07:00,43.180583954,-70.427284241,43.18,-70.43
2008-10-10 08:00,43.180633545,-70.427268982,43.18,-70.43
2008-10-10 09:00,43.180599213,-70.427284241,43.18,-70.43
2008-10-10 10:00,43.180583954,-70.427284241,43.18,-70.43
2008-10-10 11:00,43.180618286,-70.427299500,43.18,-70.43
2008-10-10 12:00,43.180618286,-70.427284241,43.18,-70.43
2008-10-10 13:00,43.180618286,-70.427268982,43.18,-70.43
2008-10-10 14:00,43.180599213,-70.427215576,43.18,-70.43
2008-10-10 15:00,43.180515289,-70.427185059,43.18,-70.43
2008-10-10 16:00,43.180465698,-70.427215576,43.18,-70.43
2008-10-10 17:00,43.180484772,-70.427215576,43.18,-70.43
2008-10-10 18:00,43.180465698,-70.427230835,43.18,-70.43
2008-10-10 19:00,43.180465698,-70.427268982,43.18,-70.43
2008-10-10 20:00,43.180549622,-70.427299500,43.18,-70.43
2008-10-10 21:00,43.180534363,-70.427368164,43.18,-70.43
2008-10-10 22:00,43.180515289,-70.427330017,43.18,-70.43
2008-10-10 23:00,43.180500031,-70.427314758,43.18,-70.43
2008-10-11 00:00,43.180515289,-70.427284241,43.18,-70.43
2008-10-11 01:00,43.180564880,-70.427314758,43.18,-70.43
2008-10-11 02:00,43.180484772,-70.427330017,43.18,-70.43
2008-10-11 03:00,43.180484772,-70.427314758,43.18,-70.43
2008-10-11 04:00,43.180465698,-70.427314758,43.18,-70.43
2008-10-11 05:00,43.180450439,-70.427299500,43.18,-70.43
2008-10-11 06:00,43.180484772,-70.427230835,43.18,-70.43
2008-10-11 07:00,43.180500031,-70.427253723,43.18,-70.43
2008-10-11 08:00,43.180484772,-70.427284241,43.18,-70.43
2008-10-11 09:00,43.180534363,-70.427299500,43.18,-70.43
2008-10-11 10:00,43.180515289,-70.427368164,43.18,-70.43
2008-10-11 11:00,43.180500031,-70.427368164,43.18,-70.43
2008-10-11 12:00,43.180618286,-70.427330017,43.18,-70.43
2008-10-11 14:00,43.180484772,-70.427299500,43.18,-70.43
2008-10-11 15:00,43.180515289,-70.427330017,43.18,-70.43
2008-10-11 16:00,43.180515289,-70.427299500,43.18,-70.43
2008-10-11 17:00,43.180549622,-70.427268982,43.18,-70.43
2008-10-11 18:00,43.180549622,-70.427215576,43.18,-70.43
2008-10-11 19:00,43.180583954,-70.427284241,43.18,-70.43
2008-10-11 20:00,43.180648804,-70.427352905,43.18,-70.43
2008-10-11 21:00,43.180633545,-70.427352905,43.18,-70.43
2008-10-11 22:00,43.180698395,-70.427383423,43.18,-70.43
2008-10-11 23:00,43.180732727,-70.427436829,43.18,-70.43
2008-10-12 00:00,43.180633545,-70.427352905,43.18,-70.43
2008-10-12 01:00,43.180599213,-70.427314758,43.18,-70.43
2008-10-12 02:00,43.180549622,-70.427314758,43.18,-70.43
2008-10-12 03:00,43.180515289,-70.427299500,43.18,-70.43
2008-10-12 04:00,43.180500031,-70.427299500,43.18,-70.43
2008-10-12 05:00,43.180500031,-70.427299500,43.18,-70.43
2008-10-12 06:00,43.180500031,-70.427299500,43.18,-70.43
2008-10-12 07:00,43.180500031,-70.427284241,43.18,-70.43
2008-10-12 08:00,43.180465698,-70.427352905,43.18,-70.43
2008-10-12 09:00,43.180500031,-70.427413940,43.18,-70.43
2008-10-12 10:00,43.180534363,-70.427482605,43.18,-70.43
2008-10-12 11:00,43.180583954,-70.427513123,43.18,-70.43
2008-10-12 12:00,43.180633545,-70.427467346,43.18,-70.43
2008-10-12 13:00,43.180618286,-70.427352905,43.18,-70.43
2008-10-12 14:00,43.180599213,-70.427299500,43.18,-70.43
2008-10-12 15:00,43.180564880,-70.427299500,43.18,-70.43
2008-10-12 16:00,43.180549622,-70.427299500,43.18,-70.43
2008-10-12 17:00,43.180583954,-70.427253723,43.18,-70.43
2008-10-12 18:00,43.180618286,-70.427299500,43.18,-70.43
2008-10-12 19:00,43.180648804,-70.427230835,43.18,-70.43
2008-10-12 20:00,43.180648804,-70.427268982,43.17,-70.42
2008-10-12 21:00,43.180717468,-70.427284241,43.18,-70.43
2008-10-12 22:00,43.180732727,-70.427314758,43.18,-70.43
2008-10-12 23:00,43.180751801,-70.427299500,43.18,-70.43
2008-10-13 00:00,43.180683136,-70.427299500,43.18,-70.43
2008-10-13 01:00,43.180618286,-70.427230835,43.18,-70.43
2008-10-13 02:00,43.180599213,-70.427230835,43.18,-70.43
2008-10-13 03:00,43.180549622,-70.427215576,43.18,-70.43
2008-10-13 04:00,43.180484772,-70.427215576,43.18,-70.43
2008-10-13 05:00,,,,
2008-10-13 06:00,43.180500031,-70.427253723,43.18,-70.43
2008-10-13 07:00,43.180549622,-70.427284241,43.18,-70.43
2008-10-13 08:00,43.180534363,-70.427314758,43.18,-70.43
2008-10-13 09:00,43.180534363,-70.427314758,43.18,-70.43
2008-10-13 10:00,43.180549622,-70.427368164,43.18,-70.43
2008-10-13 11:00,43.180599213,-70.427467346,43.18,-70.43
2008-10-13 12:00,43.180683136,-70.427497864,43.18,-70.43
2008-10-13 13:00,43.180633545,-70.427482605,43.18,-70.43
2008-10-13 14:00,43.180583954,-70.427436829,43.18,-70.43
2008-10-13 15:00,43.180583954,-70.427436829,43.18,-70.43
2008-10-13 16:00,43.180534363,-70.427368164,43.18,-70.43
2008-10-13 17:00,43.180515289,-70.427330017,43.18,-70.43
2008-10-13 18:00,43.180515289,-70.427299500,43.18,-70.43
2008-10-13 19:00,43.180534363,-70.427268982,43.18,-70.43
2008-10-13 20:00,43.180583954,-70.427284241,43.18,-70.43
2008-10-13 21:00,43.180583954,-70.427467346,43.18,-70.43
2008-10-13 22:00,43.180648804,-70.427482605,43.18,-70.43
2008-10-13 23:00,43.180667877,-70.427482605,43.18,-70.43
2008-10-14 00:00,43.180633545,-70.427497864,43.18,-70.43
2008-10-14 01:00,43.180667877,-70.427436829,43.18,-70.43
2008-10-14 02:00,43.180633545,-70.427368164,43.18,-70.43
2008-10-14 03:00,43.180583954,-70.427330017,43.18,-70.43
2008-10-14 04:00,43.180534363,-70.427330017,43.18,-70.43
2008-10-14 05:00,43.180534363,-70.427268982,43.18,-70.43
2008-10-14 06:00,43.180549622,-70.427268982,43.18,-70.43
2008-10-14 08:00,43.180583954,-70.427230835,43.18,-70.43
2008-10-14 09:00,43.180583954,-70.427253723,43.18,-70.43
2008-10-14 10:00,43.180618286,-70.427314758,43.18,-70.43
2008-10-14 11:00,43.180618286,-70.427299500,43.18,-70.43
2008-10-14 12:00,43.180698395,-70.427383423,43.18,-70.43
2008-10-14 13:00,43.180683136,-70.427383423,43.18,-70.43
2008-10-14 14:00,43.180648804,-70.427330017,43.18,-70.43
2008-10-14 15:00,43.180683136,-70.427268982,43.18,-70.43
2008-10-14 16:00,43.180633545,-70.427230835,43.18,-70.43
2008-10-14 17:00,43.180633545,-70.427253723,43.18,-70.43
2008-10-14 18:00,43.180698395,-70.427215576,43.18,-70.43
2008-10-14 19:00,43.180683136,-70.427169800,43.18,-70.43
2008-10-14 20:00,43.180717468,-70.427131653,43.18,-70.43
2008-10-14 21:00,43.180801392,-70.427268982,43.18,-70.43
2008-10-14 22:00,43.180816650,-70.427299500,43.18,-70.43
2008-10-14 23:00,43.180801392,-70.427299500,43.18,-70.43
2008-10-15 00:00,43.180801392,-70.427314758,43.18,-70.43
2008-10-15 01:00,43.180767059,-70.427268982,43.18,-70.43
2008-10-15 02:00,43.180717468,-70.427268982,43.18,-70.43
2008-10-15 03:00,43.180618286,-70.427230835,43.18,-70.43
2008-10-15 04:00,43.180564880,-70.427169800,43.18,-70.43
2008-10-15 05:00,43.180500031,-70.427116394,43.18,-70.43
2008-10-15 06:00,43.180465698,-70.427185059,43.18,-70.43
2008-10-15 07:00,43.180435181,-70.427200317,43.18,-70.43
2008-10-15 08:00,43.180435181,-70.427200317,43.18,-70.43
2008-10-15 09:00,43.180450439,-70.427268982,43.18,-70.43
2008-10-15 10:00,43.180450439,-70.427352905,43.18,-70.43
2008-10-15 11:00,43.180500031,-70.427398682,43.18,-70.43
2008-10-15 12:00,43.180564880,-70.427497864,43.18,-70.43
2008-10-15 13:00,43.180648804,-70.427513123,43.18,-70.43
2008-10-15 14:00,43.180667877,-70.427597046,43.18,-70.43
2008-10-15 15:00,43.180683136,-70.427551270,43.18,-70.43
2008-10-15 16:00,43.180648804,-70.427452087,43.18,-70.43
2008-10-15 17:00,43.180599213,-70.427352905,43.18,-70.43
2008-10-15 18:00,43.180564880,-70.427330017,43.18,-70.43
2008-10-15 19:00,43.180583954,-70.427299500,43.18,-70.43
2008-10-15 20:00,43.180599213,-70.427230835,43.18,-70.43
2008-10-15 21:00,43.180599213,-70.427230835,43.18,-70.43
2008-10-15 22:00,43.180683136,-70.427284241,43.18,-70.43
2008-10-15 23:00,43.180683136,-70.427352905,43.18,-70.43
2008-10-16 00:00,43.180667877,-70.427368164,43.18,-70.43
2008-10-16 01:00,43.180782318,-70.427497864,43.18,-70.43
2008-10-16 02:00,43.180698395,-70.427398682,43.18,-70.43
2008-10-16 03:00,43.180648804,-70.427436829,43.18,-70.43
2008-10-16 04:00,43.180633545,-70.427368164,43.18,-70.43
2008-10-16 05:00,43.180599213,-70.427299500,43.18,-70.43
2008-10-16 06:00,43.180583954,-70.427268982,43.18,-70.43
2008-10-16 07:00,43.180549622,-70.427253723,43.18,-70.43
2008-10-16 08:00,43.180618286,-70.427215576,43.18,-70.43
2008-10-16 09:00,43.180667877,-70.427131653,43.18,-70.43
2008-10-16 10:00,43.180648804,-70.427200317,43.18,-70.43
2008-10-16 11:00,43.180648804,-70.427185059,43.18,-70.43
2008-10-16 12:00,43.180698395,-70.427268982,43.18,-70.43
2008-10-16 13:00,43.180717468,-70.427314758,43.18,-70.43
2008-10-16 14:00,43.180717468,-70.427352905,43.18,-70.43
2008-10-16 15:00,43.180698395,-70.427383423,43.18,-70.43
2008-10-16 16:00,43.180698395,-70.427368164,43.18,-70.43
2008-10-16 17:00,43.180683136,-70.427284241,43.18,-70.43
2008-10-16 18:00,43.180633545,-70.427230835,43.18,-70.43
2008-10-16 19:00,43.180633545,-70.427185059,43.18,-70.43
2008-10-16 20:00,43.180599213,-70.427169800,43.18,-70.43
2008-10-16 21:00,43.180599213,-70.427131653,43.18,-70.43
2008-10-16 22:00,43.180549622,-70.427131653,43.18,-70.43
2008-10-16 23:00,43.180534363,-70.427131653,43.18,-70.43
2008-10-17 00:00,43.180465698,-70.427185059,43.18,-70.43
2008-10-17 02:00,,,,
2008-10-17 03:00,43.180435181,-70.427436829,43.18,-70.43
2008-10-17 04:00,43.180500031,-70.427314758,43.18,-70.43
2008-10-17 05:00,43.180500031,-70.427268982,43.18,-70.43
2008-10-17 06:00,43.180465698,-70.427284241,43.18,-70.43
2008-10-17 07:00,43.180400848,-70.427268982,43.18,-70.43
2008-10-17 08:00,43.180400848,-70.427253723,43.18,-70.43
2008-10-17 09:00,43.180400848,-70.427230835,43.18,-70.43
2008-10-17 10:00,43.180400848,-70.427268982,43.18,-70.43
2008-10-17 11:00,43.180366516,-70.427314758,43.18,-70.43
2008-10-17 12:00,43.180400848,-70.427330017,43.18,-70.43
2008-10-17 13:00,43.180435181,-70.427436829,43.18,-70.43
2008-10-17 14:00,43.180450439,-70.427497864,43.18,-70.43
2008-10-17 15:00,43.180465698,-70.427368164,43.18,-70.43
2008-10-17 16:00,43.180500031,-70.427383423,43.18,-70.43
2008-10-17 17:00,43.180450439,-70.427314758,43.18,-70.43
2008-10-17 18:00,43.180416107,-70.427268982,43.18,-70.43
2008-10-17 19:00,43.180400848,-70.427268982,43.18,-70.43
2008-10-17 20:00,43.180435181,-70.427284241,43.18,-70.43
2008-10-17 21:00,43.180416107,-70.427253723,43.18,-70.43
2008-10-17 22:00,43.180351257,-70.427253723,43.18,-70.43
2008-10-17 23:00,43.180351257,-70.427253723,43.18,-70.43
2008-10-18 00:00,43.180301666,-70.427383423,43.18,-70.43
2008-10-18 01:00,43.180366516,-70.427513123,43.18,-70.43
2008-10-18 02:00,43.180381775,-70.427536011,43.18,-70.43
2008-10-18 03:00,43.180267334,-70.427452087,43.18,-70.43
2008-10-18 04:00,43.180267334,-70.427513123,43.18,-70.43
2008-10-18 05:00,43.180267334,-70.427513123,43.18,-70.43
2008-10-18 06:00,43.180301666,-70.427536011,43.18,-70.43
2008-10-18 07:00,43.180282593,-70.427513123,43.18,-70.43
2008-10-18 08:00,43.180301666,-70.427536011,43.18,-70.43
2008-10-18 09:00,43.180301666,-70.427581787,43.18,-70.43
2008-10-18 10:00,43.180282593,-70.427635193,43.18,-70.43
2008-10-18 11:00,,,,
2008-10-18 12:00,43.180332184,-70.427635193,43.18,-70.43
2008-10-18 13:00,43.180416107,-70.427696228,43.18,-70.43
2008-10-18 14:00,43.180500031,-70.427650452,43.18,-70.43
2008-10-18 15:00,43.180599213,-70.427597046,43.18,-70.43
2008-10-18 16:00,43.180549622,-70.427482605,43.18,-70.43
2008-10-18 17:00,43.180416107,-70.427452087,43.18,-70.43
2008-10-18 18:00,43.180435181,-70.427398682,43.18,-70.43
2008-10-18 19:00,43.180400848,-70.427413940,43.18,-70.43
2008-10-18 20:00,43.180366516,-70.427352905,43.18,-70.43
2008-10-18 21:00,43.180366516,-70.427352905,43.18,-70.43
2008-10-18 22:00,43.180366516,-70.427352905,43.18,-70.43
2008-10-18 23:00,43.180366516,-70.427383423,43.18,-70.43
2008-10-19 00:00,43.180332184,-70.427436829,43.18,-70.43
2008-10-19 01:00,43.180332184,-70.427482605,43.18,-70.43
2008-10-19 02:00,43.180233002,-70.427597046,43.18,-70.43
2008-10-19 03:00,43.180301666,-70.427665710,43.18,-70.43
2008-10-19 04:00,43.180301666,-70.427719116,43.18,-70.43
2008-10-19 05:00,43.180301666,-70.427734375,43.18,-70.43
2008-10-19 06:00,43.180233002,-70.427597046,43.18,-70.43
2008-10-19 07:00,43.180248260,-70.427635193,43.18,-70.43
2008-10-19 08:00,43.180233002,-70.427696228,43.18,-70.43
2008-10-19 09:00,43.180198669,-70.427833557,43.18,-70.43
2008-10-19 10:00,43.180233002,-70.427902222,43.18,-70.43
2008-10-19 11:00,43.180248260,-70.427902222,43.18,-70.43
2008-10-19 12:00,43.180248260,-70.427963257,43.18,-70.43
2008-10-19 13:00,43.180198669,-70.427902222,43.18,-70.43
2008-10-19 14:00,43.180233002,-70.428047180,43.18,-70.43
2008-10-19 15:00,43.180301666,-70.428184509,43.18,-70.43
2008-10-19 16:00,43.180351257,-70.428146362,43.18,-70.43
2008-10-19 17:00,43.180332184,-70.428085327,43.18,-70.43
2008-10-19 18:00,43.180267334,-70.428031921,43.18,-70.43
2008-10-19 20:00,43.180198669,-70.427917480,43.18,-70.43
2008-10-19 21:00,43.180149078,-70.427833557,43.18,-70.43
2008-10-19 22:00,43.180168152,-70.427917480,43.18,-70.43
2008-10-19 23:00,43.180198669,-70.427932739,43.18,-70.43
2008-10-20 00:00,43.180233002,-70.428001404,43.18,-70.43
2008-10-20 01:00,43.180198669,-70.428031921,43.18,-70.43
2008-10-20 02:00,43.180217743,-70.428070068,43.18,-70.43
2008-10-20 03:00,43.180248260,-70.428115845,43.18,-70.43